Time,TemperatureF,DewpointF,PressureIn,WindDirection,WindDirectionDegrees,WindSpeedMPH,WindSpeedGustMPH,Humidity,HourlyPrecipIn,Conditions,Clouds,dailyrainin,SoftwareType,DateUTC
2013-10-13 00:00:00,47.6,36.8,30.27,North,32767,4.0,6.0,66,0.00,,,0.00,Wunderground v.1.15,2013-10-13 05:00:00,
2013-10-13 00:10:00,47.9,36.3,30.27,North,32767,5.0,6.0,64,0.00,,,0.00,Wunderground v.1.15,2013-10-13 05:10:00,
2013-10-13 00:20:00,47.8,37.0,30.27,North,32767,4.0,4.0,66,0.00,,,0.00,Wunderground v.1.15,2013-10-13 05:20:00,
2013-10-13 00:30:00,48.6,36.6,30.27,North,32767,3.0,6.0,63,0.00,,,0.00,Wunderground v.1.15,2013-10-13 05:30:00,
2013-10-13 00:40:00,49.0,36.5,30.27,North,32767,4.0,6.0,62,0.00,,,0.00,Wunderground v.1.15,2013-10-13 05:40:00,
2013-10-13 00:50:00,48.9,36.4,30.27,North,32767,5.0,6.0,62,0.00,,,0.00,Wunderground v.1.15,2013-10-13 05:50:00,
2013-10-13 01:00:00,49.1,36.2,30.27,North,32767,4.0,6.0,61,0.00,,,0.00,Wunderground v.1.15,2013-10-13 06:00:00,
2013-10-13 01:10:00,49.2,36.3,30.28,North,32767,4.0,4.0,61,0.00,,,0.00,Wunderground v.1.15,2013-10-13 06:10:00,
2013-10-13 01:20:00,48.5,36.9,30.28,North,32767,3.0,6.0,64,0.00,,,0.00,Wunderground v.1.15,2013-10-13 06:20:00,
2013-10-13 01:30:00,48.5,37.3,30.28,North,32767,4.0,6.0,65,0.00,,,0.00,Wunderground v.1.15,2013-10-13 06:30:00,
2013-10-13 01:40:00,48.5,37.7,30.28,North,32767,4.0,4.0,66,0.00,,,0.00,Wunderground v.1.15,2013-10-13 06:40:00,
2013-10-13 01:50:00,48.5,37.7,30.29,North,32767,4.0,4.0,66,0.00,,,0.00,Wunderground v.1.15,2013-10-13 06:50:00,
2013-10-13 02:00:00,48.5,37.7,30.29,North,32767,3.0,3.0,66,0.00,,,0.00,Wunderground v.1.15,2013-10-13 07:00:00,
2013-10-13 02:10:00,48.3,37.5,30.29,North,32767,2.0,2.0,66,0.00,,,0.00,Wunderground v.1.15,2013-10-13 07:10:00,
2013-10-13 02:20:00,48.3,37.8,30.29,North,32767,1.0,6.0,67,0.00,,,0.00,Wunderground v.1.15,2013-10-13 07:20:00,
2013-10-13 02:30:00,48.6,38.1,30.29,North,32767,2.0,2.0,67,0.00,,,0.00,Wunderground v.1.15,2013-10-13 07:30:00,
2013-10-13 02:40:00,48.4,37.9,30.29,North,32767,2.0,6.0,67,0.00,,,0.00,Wunderground v.1.15,2013-10-13 07:40:00,
2013-10-13 02:50:00,48.1,38.4,30.29,North,32767,3.0,3.0,69,0.00,,,0.00,Wunderground v.1.15,2013-10-13 07:50:00,
2013-10-13 03:00:00,47.9,38.6,30.30,North,32767,3.0,4.0,70,0.00,,,0.00,Wunderground v.1.15,2013-10-13 08:00:00,
2013-10-13 03:10:00,48.1,38.8,30.30,North,32767,4.0,5.0,70,0.00,,,0.00,Wunderground v.1.15,2013-10-13 08:10:00,
2013-10-13 03:22:00,48.3,38.6,30.30,North,32767,5.0,5.0,69,0.00,,,0.00,Wunderground v.1.15,2013-10-13 08:22:00,
2013-10-13 03:30:00,48.3,38.6,30.29,North,32767,5.0,6.0,69,0.00,,,0.00,Wunderground v.1.15,2013-10-13 08:30:00,
2013-10-13 03:40:00,48.3,38.6,30.29,North,32767,6.0,6.0,69,0.00,,,0.00,Wunderground v.1.15,2013-10-13 08:40:00,
2013-10-13 03:50:00,48.2,38.5,30.29,North,32767,6.0,6.0,69,0.00,,,0.00,Wunderground v.1.15,2013-10-13 08:50:00,
2013-10-13 04:00:00,47.9,38.6,30.28,North,32767,6.0,6.0,70,0.00,,,0.00,Wunderground v.1.15,2013-10-13 09:00:00,
2013-10-13 04:10:00,47.7,38.4,30.28,North,32767,6.0,6.0,70,0.00,,,0.00,Wunderground v.1.15,2013-10-13 09:10:00,
2013-10-13 04:20:00,47.8,38.1,30.28,North,32767,6.0,6.0,69,0.00,,,0.00,Wunderground v.1.15,2013-10-13 09:20:00,
2013-10-13 04:30:00,47.4,37.7,30.28,North,32767,6.0,8.0,69,0.00,,,0.00,Wunderground v.1.15,2013-10-13 09:30:00,
2013-10-13 04:40:00,46.9,37.3,30.28,North,32767,6.0,6.0,69,0.00,,,0.00,Wunderground v.1.15,2013-10-13 09:40:00,
2013-10-13 04:50:00,46.6,37.0,30.28,North,32767,6.0,6.0,69,0.00,,,0.00,Wunderground v.1.15,2013-10-13 09:50:00,
2013-10-13 05:00:00,46.5,36.9,30.28,North,32767,6.0,6.0,69,0.00,,,0.00,Wunderground v.1.15,2013-10-13 10:00:00,
2013-10-13 05:10:00,46.3,36.7,30.28,North,32767,5.0,5.0,69,0.00,,,0.00,Wunderground v.1.15,2013-10-13 10:10:00,
2013-10-13 05:20:00,45.9,36.7,30.28,North,32767,6.0,8.0,70,0.00,,,0.00,Wunderground v.1.15,2013-10-13 10:20:00,
2013-10-13 05:30:00,45.9,36.7,30.28,North,32767,6.0,6.0,70,0.00,,,0.00,Wunderground v.1.15,2013-10-13 10:30:00,
2013-10-13 05:40:00,45.6,36.4,30.27,North,32767,5.0,5.0,70,0.00,,,0.00,Wunderground v.1.15,2013-10-13 10:40:00,
2013-10-13 05:50:00,45.7,36.1,30.27,North,32767,6.0,7.0,69,0.00,,,0.00,Wunderground v.1.15,2013-10-13 10:50:00,
2013-10-13 06:00:00,45.6,36.0,30.28,North,32767,7.0,7.0,69,0.00,,,0.00,Wunderground v.1.15,2013-10-13 11:00:00,
2013-10-13 06:10:00,45.0,35.8,30.29,North,32767,5.0,5.0,70,0.00,,,0.00,Wunderground v.1.15,2013-10-13 11:10:00,
2013-10-13 06:20:00,44.3,35.5,30.29,North,32767,4.0,5.0,71,0.00,,,0.00,Wunderground v.1.15,2013-10-13 11:20:00,
2013-10-13 06:30:00,44.1,35.6,30.29,North,32767,4.0,6.0,72,0.00,,,0.00,Wunderground v.1.15,2013-10-13 11:30:00,
2013-10-13 06:40:00,43.9,35.5,30.29,North,32767,6.0,6.0,72,0.00,,,0.00,Wunderground v.1.15,2013-10-13 11:40:00,
2013-10-13 06:50:00,43.1,35.4,30.30,North,32767,4.0,4.0,74,0.00,,,0.00,Wunderground v.1.15,2013-10-13 11:50:00,
2013-10-13 07:00:00,42.8,35.4,30.30,North,32767,4.0,6.0,75,0.00,,,0.00,Wunderground v.1.15,2013-10-13 12:00:00,
2013-10-13 07:10:00,42.6,35.2,30.30,North,32767,5.0,5.0,75,0.00,,,0.00,Wunderground v.1.15,2013-10-13 12:10:00,
2013-10-13 07:20:00,42.5,35.5,30.30,North,32767,6.0,7.0,76,0.00,,,0.00,Wunderground v.1.15,2013-10-13 12:20:00,
2013-10-13 07:30:00,42.4,35.4,30.30,North,32767,7.0,8.0,76,0.00,,,0.00,Wunderground v.1.15,2013-10-13 12:30:00,
2013-10-13 07:40:00,42.0,35.3,30.30,North,32767,6.0,7.0,77,0.00,,,0.00,Wunderground v.1.15,2013-10-13 12:40:00,
2013-10-13 07:50:00,41.9,35.2,30.30,North,32767,6.0,6.0,77,0.00,,,0.00,Wunderground v.1.15,2013-10-13 12:50:00,
2013-10-13 08:00:00,42.0,35.3,30.31,North,32767,6.0,6.0,77,0.00,,,0.00,Wunderground v.1.15,2013-10-13 13:00:00,
2013-10-13 08:10:00,42.4,35.4,30.31,North,32767,5.0,5.0,76,0.00,,,0.00,Wunderground v.1.15,2013-10-13 13:10:00,
2013-10-13 08:20:00,42.6,35.2,30.31,North,32767,4.0,5.0,75,0.00,,,0.00,Wunderground v.1.15,2013-10-13 13:20:00,
2013-10-13 08:30:00,43.1,35.7,30.32,North,32767,4.0,5.0,75,0.00,,,0.00,Wunderground v.1.15,2013-10-13 13:30:00,
2013-10-13 08:40:00,43.8,35.7,30.32,North,32767,6.0,6.0,73,0.00,,,0.00,Wunderground v.1.15,2013-10-13 13:40:00,
2013-10-13 08:50:00,44.5,36.0,30.33,North,32767,7.0,7.0,72,0.00,,,0.00,Wunderground v.1.15,2013-10-13 13:50:00,
2013-10-13 09:00:00,45.7,36.5,30.33,North,32767,6.0,7.0,70,0.00,,,0.00,Wunderground v.1.15,2013-10-13 14:00:00,
2013-10-13 09:10:00,46.5,36.5,30.33,North,32767,7.0,7.0,68,0.00,,,0.00,Wunderground v.1.15,2013-10-13 14:10:00,
2013-10-13 09:20:00,47.3,36.5,30.33,North,32767,7.0,7.0,66,0.00,,,0.00,Wunderground v.1.15,2013-10-13 14:20:00,
2013-10-13 09:30:00,48.0,36.4,30.33,North,32767,8.0,8.0,64,0.00,,,0.00,Wunderground v.1.15,2013-10-13 14:30:00,
2013-10-13 09:40:00,48.9,36.9,30.33,North,32767,10.0,10.0,63,0.00,,,0.00,Wunderground v.1.15,2013-10-13 14:40:00,
2013-10-13 09:50:00,50.0,36.2,30.33,North,32767,9.0,12.0,59,0.00,,,0.00,Wunderground v.1.15,2013-10-13 14:50:00,
2013-10-13 10:00:00,51.1,36.4,30.33,North,32767,9.0,16.0,57,0.00,,,0.00,Wunderground v.1.15,2013-10-13 15:00:00,
2013-10-13 10:10:00,51.6,35.9,30.33,North,32767,11.0,12.0,55,0.00,,,0.00,Wunderground v.1.15,2013-10-13 15:10:00,
2013-10-13 10:20:00,52.3,36.1,30.33,North,32767,11.0,11.0,54,0.00,,,0.00,Wunderground v.1.15,2013-10-13 15:20:00,
2013-10-13 10:30:00,52.7,36.5,30.33,North,32767,10.0,11.0,54,0.00,,,0.00,Wunderground v.1.15,2013-10-13 15:30:00,
2013-10-13 10:40:00,53.2,36.5,30.33,North,32767,11.0,11.0,53,0.00,,,0.00,Wunderground v.1.15,2013-10-13 15:40:00,
2013-10-13 10:50:00,53.9,35.7,30.33,North,32767,12.0,12.0,50,0.00,,,0.00,Wunderground v.1.15,2013-10-13 15:50:00,
2013-10-13 11:00:00,54.4,36.1,30.33,North,32767,14.0,14.0,50,0.00,,,0.00,Wunderground v.1.15,2013-10-13 16:00:00,
2013-10-13 11:10:00,55.4,36.5,30.33,North,32767,13.0,17.0,49,0.00,,,0.00,Wunderground v.1.15,2013-10-13 16:10:00,
2013-10-13 11:20:00,56.3,34.6,30.32,North,32767,15.0,16.0,44,0.00,,,0.00,Wunderground v.1.15,2013-10-13 16:20:00,
2013-10-13 11:30:00,57.0,34.7,30.32,North,32767,16.0,20.0,43,0.00,,,0.00,Wunderground v.1.15,2013-10-13 16:30:00,
2013-10-13 11:40:00,57.6,35.8,30.31,North,32767,16.0,16.0,44,0.00,,,0.00,Wunderground v.1.15,2013-10-13 16:40:00,
2013-10-13 11:50:00,57.6,34.7,30.31,North,32767,16.0,19.0,42,0.00,,,0.00,Wunderground v.1.15,2013-10-13 16:50:00,
2013-10-13 12:00:00,57.8,34.2,30.31,North,32767,17.0,17.0,41,0.00,,,0.00,Wunderground v.1.15,2013-10-13 17:00:00,
2013-10-13 12:10:00,58.5,35.5,30.31,North,32767,16.0,17.0,42,0.00,,,0.00,Wunderground v.1.15,2013-10-13 17:10:00,
2013-10-13 12:20:00,58.6,35.0,30.31,North,32767,18.0,21.0,41,0.00,,,0.00,Wunderground v.1.15,2013-10-13 17:20:00,
2013-10-13 12:30:00,59.1,34.8,30.30,North,32767,17.0,23.0,40,0.00,,,0.00,Wunderground v.1.15,2013-10-13 17:30:00,
2013-10-13 12:40:00,59.1,35.4,30.29,North,32767,18.0,18.0,41,0.00,,,0.00,Wunderground v.1.15,2013-10-13 17:40:00,
2013-10-13 12:50:00,59.5,35.8,30.28,North,32767,17.0,23.0,41,0.00,,,0.00,Wunderground v.1.15,2013-10-13 17:50:00,
2013-10-13 13:00:00,59.8,34.1,30.28,North,32767,19.0,21.0,38,0.00,,,0.00,Wunderground v.1.15,2013-10-13 18:00:00,
2013-10-13 13:10:00,60.5,34.1,30.27,North,32767,18.0,22.0,37,0.00,,,0.00,Wunderground v.1.15,2013-10-13 18:10:00,
2013-10-13 13:20:00,60.8,34.3,30.27,North,32767,18.0,18.0,37,0.00,,,0.00,Wunderground v.1.15,2013-10-13 18:20:00,
2013-10-13 13:30:00,61.1,34.6,30.26,North,32767,17.0,18.0,37,0.00,,,0.00,Wunderground v.1.15,2013-10-13 18:30:00,
2013-10-13 13:40:00,62.0,32.5,30.25,North,32767,18.0,18.0,33,0.00,,,0.00,Wunderground v.1.15,2013-10-13 18:40:00,
2013-10-13 13:50:00,62.4,34.4,30.25,North,32767,17.0,17.0,35,0.00,,,0.00,Wunderground v.1.15,2013-10-13 18:50:00,
2013-10-13 14:00:00,62.7,32.4,30.24,North,32767,17.0,18.0,32,0.00,,,0.00,Wunderground v.1.15,2013-10-13 19:00:00,
2013-10-13 14:10:00,62.4,31.3,30.23,North,32767,21.0,24.0,31,0.00,,,0.00,Wunderground v.1.15,2013-10-13 19:10:00,
2013-10-13 14:20:00,62.6,32.3,30.23,North,32767,18.0,18.0,32,0.00,,,0.00,Wunderground v.1.15,2013-10-13 19:20:00,
2013-10-13 14:30:00,62.8,31.7,30.22,North,32767,20.0,20.0,31,0.00,,,0.00,Wunderground v.1.15,2013-10-13 19:30:00,
2013-10-13 14:40:00,63.2,32.8,30.21,North,32767,17.0,17.0,32,0.00,,,0.00,Wunderground v.1.15,2013-10-13 19:40:00,
2013-10-13 15:00:00,62.9,31.8,30.19,North,32767,20.0,20.0,31,0.00,,,0.00,Wunderground v.1.15,2013-10-13 20:00:00,
2013-10-13 15:10:00,62.4,32.1,30.19,North,32767,17.0,17.0,32,0.00,,,0.00,Wunderground v.1.15,2013-10-13 20:10:00,
2013-10-13 15:20:00,62.8,34.0,30.19,North,32767,16.0,16.0,34,0.00,,,0.00,Wunderground v.1.15,2013-10-13 20:20:00,
2013-10-13 15:30:00,62.4,33.6,30.18,North,32767,20.0,20.0,34,0.00,,,0.00,Wunderground v.1.15,2013-10-13 20:30:00,
2013-10-13 15:40:00,62.1,32.6,30.17,North,32767,20.0,20.0,33,0.00,,,0.00,Wunderground v.1.15,2013-10-13 20:40:00,
2013-10-13 15:50:00,61.9,33.2,30.17,North,32767,18.0,27.0,34,0.00,,,0.00,Wunderground v.1.15,2013-10-13 20:50:00,
2013-10-13 16:00:00,62.4,32.9,30.17,North,32767,19.0,19.0,33,0.00,,,0.00,Wunderground v.1.15,2013-10-13 21:00:00,
2013-10-13 16:10:00,62.1,34.1,30.16,North,32767,18.0,18.0,35,0.00,,,0.00,Wunderground v.1.15,2013-10-13 21:10:00,
2013-10-13 16:20:00,63.0,34.2,30.16,North,32767,17.0,17.0,34,0.00,,,0.00,Wunderground v.1.15,2013-10-13 21:20:00,
2013-10-13 16:30:00,63.6,33.9,30.16,North,32767,18.0,22.0,33,0.00,,,0.00,Wunderground v.1.15,2013-10-13 21:30:00,
2013-10-13 16:40:00,63.4,33.8,30.16,North,32767,17.0,24.0,33,0.00,,,0.00,Wunderground v.1.15,2013-10-13 21:40:00,
2013-10-13 16:50:00,62.3,33.6,30.16,North,32767,21.0,21.0,34,0.00,,,0.00,Wunderground v.1.15,2013-10-13 21:50:00,
2013-10-13 17:00:00,62.1,34.1,30.16,North,32767,16.0,16.0,35,0.00,,,0.00,Wunderground v.1.15,2013-10-13 22:00:00,
2013-10-13 17:10:00,61.8,33.1,30.15,North,32767,18.0,18.0,34,0.00,,,0.00,Wunderground v.1.15,2013-10-13 22:10:00,
2013-10-13 17:20:00,61.6,32.2,30.15,North,32767,20.0,20.0,33,0.00,,,0.00,Wunderground v.1.15,2013-10-13 22:20:00,
2013-10-13 17:30:00,62.0,33.3,30.15,North,32767,16.0,21.0,34,0.00,,,0.00,Wunderground v.1.15,2013-10-13 22:30:00,
2013-10-13 18:00:00,61.3,31.9,30.15,North,32767,17.0,17.0,33,0.00,,,0.00,Wunderground v.1.15,2013-10-13 23:00:00,
2013-10-13 18:10:00,61.0,32.4,30.15,North,32767,16.0,16.0,34,0.00,,,0.00,Wunderground v.1.15,2013-10-13 23:10:00,
2013-10-13 18:20:00,60.8,33.0,30.15,North,32767,14.0,14.0,35,0.00,,,0.00,Wunderground v.1.15,2013-10-13 23:20:00,
2013-10-13 18:30:00,60.6,32.8,30.15,North,32767,15.0,15.0,35,0.00,,,0.00,Wunderground v.1.15,2013-10-13 23:30:00,
2013-10-13 18:40:00,60.1,33.0,30.15,North,32767,10.0,11.0,36,0.00,,,0.00,Wunderground v.1.15,2013-10-13 23:40:00,
2013-10-13 18:50:00,59.8,33.5,30.14,North,32767,11.0,29.0,37,0.00,,,0.00,Wunderground v.1.15,2013-10-13 23:50:00,
2013-10-13 19:00:00,59.6,33.9,30.14,North,32767,10.0,10.0,38,0.00,,,0.00,Wunderground v.1.15,2013-10-14 00:00:00,
2013-10-13 19:10:00,59.4,34.4,30.13,North,32767,11.0,29.0,39,0.00,,,0.00,Wunderground v.1.15,2013-10-14 00:10:00,
2013-10-13 19:20:00,59.2,34.9,30.13,North,32767,9.0,9.0,40,0.00,,,0.00,Wunderground v.1.15,2013-10-14 00:20:00,
2013-10-13 19:30:00,59.3,35.0,30.15,North,32767,10.0,29.0,40,0.00,,,0.00,Wunderground v.1.15,2013-10-14 00:30:00,
2013-10-13 19:40:00,58.0,37.9,30.15,North,32767,10.0,10.0,47,0.00,,,0.00,Wunderground v.1.15,2013-10-14 00:40:00,
2013-10-13 19:50:00,57.0,37.0,30.14,North,32767,10.0,10.0,47,0.00,,,0.00,Wunderground v.1.15,2013-10-14 00:50:00,
2013-10-13 20:00:00,56.8,37.3,30.14,North,32767,14.0,29.0,48,0.00,,,0.00,Wunderground v.1.15,2013-10-14 01:00:00,
2013-10-13 20:10:00,55.6,38.2,30.14,North,32767,12.0,29.0,52,0.00,,,0.00,Wunderground v.1.15,2013-10-14 01:10:00,
2013-10-13 20:20:00,55.0,38.2,30.14,North,32767,9.0,29.0,53,0.00,,,0.00,Wunderground v.1.15,2013-10-14 01:20:00,
2013-10-13 20:30:00,55.0,38.2,30.15,North,32767,8.0,29.0,53,0.00,,,0.00,Wunderground v.1.15,2013-10-14 01:30:00,
2013-10-13 20:40:00,54.5,38.7,30.16,North,32767,6.0,29.0,55,0.00,,,0.00,Wunderground v.1.15,2013-10-14 01:40:00,
2013-10-13 20:50:00,54.4,39.0,30.16,North,32767,5.0,5.0,56,0.00,,,0.00,Wunderground v.1.15,2013-10-14 01:50:00,
2013-10-13 21:00:00,54.7,38.8,30.16,North,32767,7.0,29.0,55,0.00,,,0.00,Wunderground v.1.15,2013-10-14 02:00:00,
2013-10-13 21:10:00,54.3,40.3,30.14,North,32767,10.0,29.0,59,0.00,,,0.01,Wunderground v.1.15,2013-10-14 02:10:00,
2013-10-13 21:20:00,52.3,40.9,30.15,North,32767,8.0,8.0,65,0.00,,,0.01,Wunderground v.1.15,2013-10-14 02:20:00,
2013-10-13 21:30:00,51.4,41.6,30.14,North,32767,9.0,9.0,69,0.00,,,0.01,Wunderground v.1.15,2013-10-14 02:30:00,
2013-10-13 21:40:00,51.1,41.7,30.15,North,32767,9.0,9.0,70,0.00,,,0.02,Wunderground v.1.15,2013-10-14 02:40:00,
2013-10-13 21:50:00,51.0,42.3,30.15,North,32767,8.0,29.0,72,0.04,,,0.03,Wunderground v.1.15,2013-10-14 02:50:00,
2013-10-13 22:00:00,50.5,42.2,30.16,North,32767,6.0,29.0,73,0.04,,,0.03,Wunderground v.1.15,2013-10-14 03:00:00,
2013-10-13 22:10:00,50.5,42.2,30.17,North,32767,6.0,6.0,73,0.00,,,0.04,Wunderground v.1.15,2013-10-14 03:10:00,
2013-10-13 22:20:00,49.8,42.9,30.15,North,32767,7.0,7.0,77,0.05,,,0.05,Wunderground v.1.15,2013-10-14 03:20:00,
2013-10-13 22:30:00,50.0,42.4,30.15,North,32767,12.0,29.0,75,0.20,,,0.09,Wunderground v.1.15,2013-10-14 03:30:00,
2013-10-13 22:40:00,49.6,42.7,30.14,North,32767,15.0,15.0,77,0.06,,,0.10,Wunderground v.1.15,2013-10-14 03:40:00,
2013-10-13 22:50:00,50.1,42.8,30.14,North,32767,21.0,21.0,76,0.59,,,0.13,Wunderground v.1.15,2013-10-14 03:50:00,
2013-10-13 23:00:00,48.2,43.6,30.13,North,32767,15.0,15.0,84,0.28,,,0.22,Wunderground v.1.15,2013-10-14 04:00:00,
2013-10-13 23:10:00,48.4,43.5,30.12,North,32767,11.0,11.0,83,0.71,,,0.31,Wunderground v.1.15,2013-10-14 04:10:00,
2013-10-13 23:20:00,50.4,42.4,30.12,North,32767,15.0,29.0,74,0.09,,,0.35,Wunderground v.1.15,2013-10-14 04:20:00,
2013-10-13 23:30:00,50.8,42.5,30.11,North,32767,11.0,29.0,73,0.04,,,0.35,Wunderground v.1.15,2013-10-14 04:30:00,
2013-10-13 23:40:00,50.6,42.6,30.10,North,32767,9.0,9.0,74,0.00,,,0.35,Wunderground v.1.15,2013-10-14 04:40:00,
2013-10-13 23:50:00,50.4,42.8,30.10,North,32767,10.0,29.0,75,0.00,,,0.36,Wunderground v.1.15,2013-10-14 04:50:00,